Flag for Germany Weather past 2 weeks in Niederkassel, North Rhine-Westphalia, Germany

Now
56 °F

Low clouds.


Feels Like: 55 °F
Forecast: 51 / 64 °F
Wind: 5 mph from West

Location: Bonn-Hangelar

Current Time: Aug 31, 2014 at 6:27:20 AM

Latest Report: Aug 31, 2014 at 6:00 AM


Visibility: 5 mi

Pressure: 29.97 "Hg

Humidity: 95%

Dew point: 54 °F

Location of NiederkasselLocation

Historic Weather in Niederkassel — Graph

°F

Niederkassel temperature yesterday

Maximum temperature yesterday: 65 °F (at 2:00 PM)
Minimum temperature yesterday: 57 °F (at 9:00 PM)
Average temperature yesterday: 60 °F

Past Weeks' High & Low Weather Summary

 TemperatureHumidityPressure
High70 °F (Aug 28, 6:00 PM)99% (Aug 26, 4:00 AM)30.13 "Hg (Aug 26, 4:00 AM)
Low47 °F (Aug 21, 6:00 AM)51% (Aug 22, 4:00 PM)29.61 "Hg (Aug 26, 6:00 AM)
Average57 °F82%29.95 "Hg
* Reported Aug 16 5:00 AM — Aug 31 5:00 AM, Niederkassel, Weather by CustomWeather, © 2014

Note: Actual official high and low records may vary slightly from our data, if they occured in-between our weather recording intervals... More about our weather records

Advertising

Niederkassel weather history for previous 24 hours

 ConditionsComfort  
Time TempWeatherWind HumidityBarometerVisibility
5:00 AM
Aug 31
56 °FFog.6 mph96%29.98 "Hg4 mi
4:00 AM56 °FFog.5 mph97%29.99 "Hg4 mi
3:00 AM57 °FLow clouds.5 mph96%30.00 "Hg4 mi
2:00 AM57 °FLow clouds.3 mph95%30.01 "Hg6 mi
1:00 AM58 °FOvercast.3 mph95%30.02 "Hg6 mi
12:00 AM58 °FLow clouds.3 mph95%30.02 "Hg6 mi
11:00 PM
Aug 30
57 °FOvercast.3 mph95%30.03 "Hg16 mi
10:00 PM57 °FOvercast.5 mph94%30.03 "Hg25 mi
9:00 PM57 °FDrizzle. Low clouds.7 mph96%30.02 "Hg5 mi
8:00 PM61 °FLow clouds.7 mph88%29.99 "Hg17 mi
7:00 PM62 °FOvercast.8 mph83%30.00 "Hg19 mi
6:00 PM62 °FPartly sunny.9 mph83%30.01 "Hg19 mi
5:00 PM62 °FOvercast.8 mph83%30.02 "Hg25 mi
4:00 PM62 °FOvercast.8 mph83%30.03 "Hg25 mi
3:00 PM63 °FOvercast.9 mph81%30.03 "Hg19 mi
2:00 PM65 °FOvercast.10 mph76%30.03 "Hg25 mi
1:00 PM62 °FOvercast.8 mph85%30.04 "Hg16 mi
12:00 PM61 °FOvercast.8 mph84%30.04 "Hg25 mi
11:00 AM60 °FOvercast.8 mph82%30.04 "Hg16 mi
10:00 AM60 °FOvercast.7 mph84%30.04 "Hg19 mi
9:00 AM60 °FOvercast.9 mph82%30.03 "Hg19 mi
8:00 AM58 °FPartly sunny.8 mph84%30.03 "Hg19 mi
7:00 AM58 °FPartly sunny.7 mph84%30.02 "Hg25 mi
6:00 AM58 °FOvercast.8 mph82%30.03 "Hg25 mi
Weather by CustomWeather, © 2014

See weather overviewHow to use our weather pages